weather.gov     
National Weather Service

Regional Weather Roundup
NWS Homepage
This page is being discontinued on March 12, 2014.
The same data is available at this site. Please update your bookmarks.
Thank you, and we apologize for the inconvenience.
Please send an email to SR-SRH.Webmaster@noaa.gov with any concerns.


Current Version
Previous Version:    01  02  03  04  05  06  07  08  09  10  11  12  13  14  15  16  17  18  19  20  21  22  23  24  25  26  27  28  29  30  
   31  32  33  34  35  36  37  38  39  40  41  42  43  44  45  46  47  48  49  50  51  52  53  54  55  56  57  58  59  60  
[Printable]
919
ASUS41 KCLE 281410
RWRCLE
OHIO REGIONAL WEATHER ROUNDUP
NATIONAL WEATHER SERVICE CLEVELAND, OH
900 AM EST WED JAN 28 2015

NOTE: "FAIR" INDICATES FEW OR NO CLOUDS BELOW 12,000 FEET WITH NO
SIGNIFICANT WEATHER AND/OR OBSTRUCTIONS TO VISIBILITY.

OHZ001>008-015>018-024>027-034-035-043-044-281500-
   NORTHWEST OHIO

CITY           SKY/WX    TMP DP  RH WIND       PRES   REMARKS
DEFIANCE       MOSUNNY    6   3  87 CALM      30.38R FOG
FINDLAY        MOSUNNY    1  -2  87 CALM      30.35R FOG
TOLEDO EXPRESS SUNNY      8   5  87 CALM      30.36R
TOLEDO EXEC    MOSUNNY   11   7  84 CALM      30.38R
LIMA           MOSUNNY    4   1  88 S5        30.35R FOG     WCI  -5
$$

OHZ009>014-019>023-028>033-038-089-281500-
   NORTHEAST OHIO

CITY           SKY/WX    TMP DP  RH WIND       PRES   REMARKS
CLE-HOPKINS    PTSUNNY   10   6  84 SW5       30.39R WCI   2
CLE-LAKEFRONT  MOSUNNY   14  11  87 SW8       30.37R WCI   3
CUY CO. ARPT   SUNNY     14  12  92 W7        30.35R WCI   4
LORAIN-ELYRIA  MOSUNNY    7   5  91 SW5       30.36S WCI  -2
ASHTABULA      MOSUNNY   -3  -6  87 CALM      30.32R
AKRON-CANTON   FOG        7   4  87 W6        30.33R VSB 3/4 WCI  -3
WOOSTER        MOSUNNY   -5  -5 100 CALM      30.34R FOG
MANSFIELD      PTSUNNY    9   8  96 CALM      30.32S FOG
YOUNGSTOWN     PTSUNNY    6   4  91 CALM      30.30R FOG
$$

OHZ042-051>053-060>062-070>072-077>081-281500-
  SOUTHWEST OHIO

CITY           SKY/WX    TMP DP  RH WIND       PRES   REMARKS
CINC-COVINGTON SUNNY     19  15  84 CALM      30.35S FOG
CINC-LUNKEN    SUNNY     16  13  88 NE6       30.41R FOG     WCI   7
HAMILTON       SUNNY     16  14  92 CALM      30.39R FOG
DAYTON         MOSUNNY   12  10  92 CALM      30.35R FOG
WRIGHT-PAT AFB SUNNY      6   2  85 NE2       30.37R FOG
DAYTON GENERAL SUNNY     12  10  92 NE3       30.34R FOG
WILMINGTON     MOSUNNY   15  10  80 CALM      30.35R HAZE
$$

OHZ036-037-039>041-045>050-054>059-063>069-073>076-082>088-281500-
  CENTRAL AND SOUTHEAST OHIO

CITY           SKY/WX    TMP DP  RH WIND       PRES   REMARKS
COLUMBUS       MOSUNNY   10   7  87 CALM      30.37R
OSU AIRPORT    MOSUNNY    8   7  95 CALM      30.36R FOG
BOLTON FIELD   SUNNY      7   3  85 CALM      30.36R FOG
RICKENBACK AFB MOSUNNY    7   4  88 CALM      30.38R
NEWARK         SUNNY      5   1  83 CALM      30.37R FOG
MARION         MOSUNNY   -3  -5  90 CALM      30.36R FOG
LANCASTER      MOSUNNY    7   6  96 CALM      30.37R FOG
ZANESVILLE     SUNNY      9   6  88 CALM      30.37R FOG
NEW PHILLY     CLOUDY    13   9  84 W3        30.38R
$$




U.S. Dept. of Commerce
NOAA National Weather Service
1325 East West Highway
Silver Spring, MD 20910
E-mail: w-nws.webmaster@noaa.gov
Page last modified: May 16, 2007
NATIONAL WEATHER SERVICE: for Safety, for Work, for Fun - FOR LIFE